| time (UTC) | temp F | wind direction | speed MPH | gust MPH | rain 1hr in | rain 24hr in | rain mn in | humidity % | barometer mb |
| 20260505024801 | 62 | 94 | 2.0 | 3.0 | 0.00 | 0.00 | 0.00 | 55 | 1009.0 |
| 20260505024258 | 63 | 323 | 3.0 | 3.0 | 0.00 | 0.00 | 0.00 | 54 | 1009.1 |
| 20260505023755 | 62 | 303 | 1.0 | 1.0 | 0.00 | 0.00 | 0.00 | 54 | 1009.2 |
| 20260505023252 | 62 | 239 | 1.0 | 1.0 | 0.00 | 0.00 | 0.00 | 54 | 1009.3 |
| 20260505022750 | 62 | 226 | 1.0 | 2.0 | 0.00 | 0.00 | 0.00 | 54 | 1009.4 |
| 20260505022246 | 62 | 289 | 1.0 | 2.0 | 0.00 | 0.00 | 0.00 | 55 | 1009.3 |
| 20260505021743 | 62 | 68 | 0.0 | 0.0 | 0.00 | 0.00 | 0.00 | 55 | 1009.5 |
| 20260505021240 | 62 | 207 | 0.0 | 1.0 | 0.00 | 0.00 | 0.00 | 55 | 1009.4 |
| 20260505020736 | 63 | 284 | 0.0 | 1.0 | 0.00 | 0.00 | 0.00 | 55 | 1009.6 |
| 20260505020231 | 63 | 191 | 0.0 | 1.0 | 0.00 | 0.00 | 0.00 | 53 | 1009.4 |
| 20260505015729 | 64 | 153 | 0.0 | 0.0 | 0.00 | 0.00 | 0.00 | 53 | 1009.6 |
| 20260505015225 | 63 | 97 | 2.0 | 2.0 | 0.00 | 0.00 | 0.00 | 54 | 1009.5 |
| 20260505014723 | 63 | 100 | 2.0 | 3.0 | 0.00 | 0.00 | 0.00 | 54 | 1009.4 |
| 20260505014220 | 63 | 186 | 0.0 | 1.0 | 0.00 | 0.00 | 0.00 | 54 | 1009.4 |
| 20260505013717 | 63 | 157 | 1.0 | 2.0 | 0.00 | 0.00 | 0.00 | 54 | 1009.6 |
| 20260505013214 | 63 | 132 | 0.0 | 0.0 | 0.00 | 0.00 | 0.00 | 55 | 1009.4 |
| 20260505012712 | 63 | 131 | 0.0 | 0.0 | 0.00 | 0.00 | 0.00 | 55 | 1009.3 |
| 20260505012209 | 64 | 132 | 0.0 | 0.0 | 0.00 | 0.00 | 0.00 | 53 | 1009.4 |
| 20260505011704 | 64 | 263 | 1.0 | 3.0 | 0.00 | 0.00 | 0.00 | 53 | 1009.5 |
| 20260505011202 | 64 | 172 | 0.0 | 0.0 | 0.00 | 0.00 | 0.00 | 52 | 1009.2 |
| 20260505010657 | 64 | 105 | 0.0 | 0.0 | 0.00 | 0.00 | 0.00 | 54 | 1009.1 |
| 20260505010154 | 64 | 91 | 0.0 | 1.0 | 0.00 | 0.00 | 0.00 | 54 | 1009.1 |
| 20260505005650 | 64 | 192 | 2.0 | 2.0 | 0.00 | 0.00 | 0.00 | 53 | 1008.9 |
| 20260505005148 | 63 | 249 | 1.0 | 3.0 | 0.00 | 0.00 | 0.00 | 55 | 1008.8 |
| 20260505004644 | 64 | 137 | 0.0 | 0.0 | 0.00 | 0.00 | 0.00 | 53 | 1008.7 |
| 20260505004141 | 64 | 250 | 0.0 | 0.0 | 0.00 | 0.00 | 0.00 | 52 | 1008.9 |
| 20260505003638 | 65 | 125 | 1.0 | 2.0 | 0.00 | 0.00 | 0.00 | 52 | 1008.8 |
| 20260505003136 | 65 | 98 | 1.0 | 2.0 | 0.00 | 0.00 | 0.00 | 52 | 1008.8 |
| 20260505002632 | 65 | 222 | 1.0 | 1.0 | 0.00 | 0.00 | 0.00 | 52 | 1008.8 |
| 20260505002130 | 65 | 328 | 1.0 | 1.0 | 0.00 | 0.00 | 0.00 | 52 | 1008.8 |
| 20260505001626 | 66 | 354 | 1.0 | 1.0 | 0.00 | 0.00 | 0.00 | 50 | 1008.4 |
| 20260505001124 | 66 | 164 | 0.0 | 1.0 | 0.00 | 0.00 | 0.00 | 49 | 1008.5 |
| 20260505000621 | 66 | 165 | 0.0 | 1.0 | 0.00 | 0.00 | 0.00 | 49 | 1008.4 |
| 20260505000119 | 67 | 150 | 1.0 | 1.0 | 0.00 | 0.00 | 0.00 | 48 | 1008.3 |
| 20260504235615 | 67 | 311 | 1.0 | 2.0 | 0.00 | 0.00 | 0.00 | 48 | 1008.4 |
| 20260504235112 | 67 | 73 | 0.0 | 0.0 | 0.00 | 0.00 | 0.00 | 47 | 1008.8 |
| 20260504234609 | 68 | 139 | 4.0 | 5.0 | 0.00 | 0.00 | 0.00 | 47 | 1008.5 |
| 20260504234106 | 68 | 137 | 3.0 | 3.0 | 0.00 | 0.00 | 0.00 | 47 | 1008.3 |
| 20260504233601 | 68 | 212 | 1.0 | 2.0 | 0.00 | 0.00 | 0.00 | 46 | 1008.2 |
| 20260504233058 | 68 | 197 | 0.0 | 0.0 | 0.00 | 0.00 | 0.00 | 46 | 1008.4 |
| 20260504232555 | 69 | 237 | 1.0 | 2.0 | 0.00 | 0.00 | 0.00 | 46 | 1008.1 |
| 20260504232053 | 69 | 18 | 2.0 | 2.0 | 0.00 | 0.00 | 0.00 | 45 | 1007.9 |
| 20260504231549 | 69 | 155 | 2.0 | 3.0 | 0.00 | 0.00 | 0.00 | 44 | 1007.9 |
| 20260504231045 | 70 | 114 | 1.0 | 1.0 | 0.00 | 0.00 | 0.00 | 45 | 1008.1 |
| 20260504230542 | 70 | 272 | 3.0 | 5.0 | 0.00 | 0.00 | 0.00 | 43 | 1008.1 |
| 20260504230041 | 70 | 215 | 2.0 | 2.0 | 0.00 | 0.00 | 0.00 | 42 | 1007.9 |
| 20260504225538 | 71 | 351 | 4.0 | 5.0 | 0.00 | 0.00 | 0.00 | 42 | 1007.8 |
| 20260504225035 | 71 | 319 | 2.0 | 3.0 | 0.00 | 0.00 | 0.00 | 43 | 1007.9 |
| 20260504224531 | 71 | 215 | 0.0 | 0.0 | 0.00 | 0.00 | 0.00 | 42 | 1007.9 |
| 20260504224028 | 72 | 237 | 3.0 | 5.0 | 0.00 | 0.00 | 0.00 | 41 | 1007.9 |
| 20260504223525 | 72 | 239 | 0.0 | 1.0 | 0.00 | 0.00 | 0.00 | 41 | 1007.8 |
| 20260504223021 | 72 | 49 | 2.0 | 2.0 | 0.00 | 0.00 | 0.00 | 40 | 1007.7 |
| 20260504222518 | 73 | 296 | 3.0 | 5.0 | 0.00 | 0.00 | 0.00 | 41 | 1007.7 |
| 20260504222016 | 73 | 148 | 0.0 | 1.0 | 0.00 | 0.00 | 0.00 | 42 | 1007.7 |
| 20260504221513 | 72 | 336 | 4.0 | 5.0 | 0.00 | 0.00 | 0.00 | 40 | 1008.0 |
| 20260504221009 | 73 | 49 | 3.0 | 3.0 | 0.00 | 0.00 | 0.00 | 40 | 1008.1 |
| 20260504220506 | 74 | 181 | 0.0 | 1.0 | 0.00 | 0.00 | 0.00 | 39 | 1008.0 |
| 20260504220003 | 73 | 221 | 3.0 | 5.0 | 0.00 | 0.00 | 0.00 | 40 | 1008.2 |
| 20260504215459 | 73 | 346 | 2.0 | 2.0 | 0.00 | 0.00 | 0.00 | 41 | 1008.1 |
| 20260504214956 | 74 | 197 | 2.0 | 2.0 | 0.00 | 0.00 | 0.00 | 40 | 1008.1 |
| 20260504214452 | 73 | 38 | 1.0 | 1.0 | 0.00 | 0.00 | 0.00 | 41 | 1008.0 |
| 20260504213949 | 73 | 221 | 1.0 | 2.0 | 0.00 | 0.00 | 0.00 | 40 | 1008.0 |
| 20260504213445 | 72 | 107 | 2.0 | 2.0 | 0.00 | 0.00 | 0.00 | 40 | 1008.2 |
| 20260504212943 | 73 | 280 | 1.0 | 2.0 | 0.00 | 0.00 | 0.00 | 40 | 1008.1 |
| 20260504212438 | 74 | 158 | 2.0 | 2.0 | 0.00 | 0.00 | 0.00 | 40 | 1008.1 |
| 20260504211937 | 73 | 192 | 0.0 | 0.0 | 0.00 | 0.00 | 0.00 | 39 | 1008.1 |
| 20260504211432 | 74 | 83 | 3.0 | 3.0 | 0.00 | 0.00 | 0.00 | 39 | 1008.1 |
| 20260504210930 | 73 | 91 | 0.0 | 1.0 | 0.00 | 0.00 | 0.00 | 39 | 1008.2 |
| 20260504210427 | 73 | 3 | 1.0 | 1.0 | 0.00 | 0.00 | 0.00 | 42 | 1008.3 |
| 20260504205924 | 72 | 295 | 2.0 | 2.0 | 0.00 | 0.00 | 0.00 | 39 | 1008.3 |
| 20260504205422 | 73 | 203 | 1.0 | 2.0 | 0.00 | 0.00 | 0.00 | 39 | 1008.4 |
| 20260504204919 | 73 | 19 | 2.0 | 3.0 | 0.00 | 0.00 | 0.00 | 40 | 1008.4 |
| 20260504204418 | 73 | 238 | 6.0 | 8.0 | 0.00 | 0.00 | 0.00 | 39 | 1008.5 |
| 20260504203917 | 72 | 0 | 3.0 | 3.0 | 0.00 | 0.00 | 0.00 | 40 | 1008.5 |
| 20260504203414 | 73 | 278 | 1.0 | 2.0 | 0.00 | 0.00 | 0.00 | 44 | 1008.7 |
| 20260504202909 | 73 | 298 | 3.0 | 3.0 | 0.00 | 0.00 | 0.00 | 41 | 1008.7 |
| 20260504202406 | 73 | 151 | 2.0 | 2.0 | 0.00 | 0.00 | 0.00 | 39 | 1008.7 |
| 20260504201903 | 73 | 279 | 4.0 | 7.0 | 0.00 | 0.00 | 0.00 | 40 | 1008.7 |
| 20260504201401 | 72 | 246 | 0.0 | 1.0 | 0.00 | 0.00 | 0.00 | 39 | 1009.0 |
| 20260504200857 | 72 | 306 | 2.0 | 3.0 | 0.00 | 0.00 | 0.00 | 39 | 1008.7 |
| 20260504200354 | 72 | 352 | 2.0 | 2.0 | 0.00 | 0.00 | 0.00 | 40 | 1009.0 |
| 20260504195851 | 71 | 254 | 2.0 | 3.0 | 0.00 | 0.00 | 0.00 | 41 | 1009.0 |
| 20260504195346 | 72 | 215 | 2.0 | 3.0 | 0.00 | 0.00 | 0.00 | 41 | 1009.1 |
| 20260504194843 | 72 | 165 | 3.0 | 5.0 | 0.00 | 0.00 | 0.00 | 41 | 1009.3 |
| 20260504194339 | 72 | 199 | 2.0 | 2.0 | 0.00 | 0.00 | 0.00 | 40 | 1009.2 |
| 20260504193836 | 72 | 318 | 4.0 | 6.0 | 0.00 | 0.00 | 0.00 | 40 | 1009.3 |
| 20260504193333 | 73 | 184 | 5.0 | 8.0 | 0.00 | 0.00 | 0.00 | 38 | 1009.3 |
| 20260504192831 | 73 | 8 | 3.0 | 3.0 | 0.00 | 0.00 | 0.00 | 40 | 1009.5 |
| 20260504192329 | 74 | 311 | 1.0 | 2.0 | 0.00 | 0.00 | 0.00 | 39 | 1009.4 |
| 20260504191827 | 73 | 148 | 3.0 | 5.0 | 0.00 | 0.00 | 0.00 | 39 | 1009.4 |
| 20260504191325 | 73 | 210 | 2.0 | 2.0 | 0.00 | 0.00 | 0.00 | 40 | 1009.6 |
| 20260504190820 | 73 | 223 | 4.0 | 5.0 | 0.00 | 0.00 | 0.00 | 39 | 1009.5 |
| 20260504190316 | 72 | 190 | 2.0 | 3.0 | 0.00 | 0.00 | 0.00 | 40 | 1009.5 |
| 20260504185813 | 71 | 309 | 3.0 | 5.0 | 0.00 | 0.00 | 0.00 | 41 | 1009.5 |
| 20260504185310 | 72 | 22 | 3.0 | 5.0 | 0.00 | 0.00 | 0.00 | 39 | 1009.8 |
| 20260504184806 | 72 | 200 | 1.0 | 2.0 | 0.00 | 0.00 | 0.00 | 39 | 1009.7 |
| 20260504184302 | 72 | 93 | 7.0 | 9.0 | 0.00 | 0.00 | 0.00 | 39 | 1009.9 |
| 20260504183758 | 71 | 297 | 1.0 | 1.0 | 0.00 | 0.00 | 0.00 | 40 | 1009.9 |
| 20260504183254 | 71 | 224 | 1.0 | 2.0 | 0.00 | 0.00 | 0.00 | 40 | 1010.0 |
| 20260504182753 | 72 | 11 | 3.0 | 5.0 | 0.00 | 0.00 | 0.00 | 40 | 1010.2 |
| 20260504182250 | 71 | 234 | 2.0 | 3.0 | 0.00 | 0.00 | 0.00 | 42 | 1010.2 |
| 20260504181747 | 72 | 269 | 4.0 | 6.0 | 0.00 | 0.00 | 0.00 | 39 | 1010.2 |
| 20260504181244 | 71 | 103 | 1.0 | 1.0 | 0.00 | 0.00 | 0.00 | 41 | 1010.2 |
| 20260504180744 | 71 | 5 | 6.0 | 7.0 | 0.00 | 0.00 | 0.00 | 39 | 1010.3 |
| 20260504180242 | 70 | 92 | 1.0 | 2.0 | 0.00 | 0.00 | 0.00 | 41 | 1010.3 |
| 20260504175739 | 69 | 285 | 5.0 | 7.0 | 0.00 | 0.00 | 0.00 | 42 | 1010.2 |
| 20260504175235 | 69 | 286 | 3.0 | 3.0 | 0.00 | 0.00 | 0.00 | 42 | 1010.4 |
| 20260504174734 | 70 | 345 | 3.0 | 5.0 | 0.00 | 0.00 | 0.00 | 40 | 1010.3 |
| 20260504174231 | 69 | 198 | 4.0 | 6.0 | 0.00 | 0.00 | 0.00 | 43 | 1010.6 |
| 20260504173727 | 69 | 239 | 3.0 | 5.0 | 0.00 | 0.00 | 0.00 | 41 | 1010.6 |
| 20260504173224 | 70 | 107 | 3.0 | 6.0 | 0.00 | 0.00 | 0.00 | 40 | 1010.7 |
| 20260504172721 | 69 | 321 | 2.0 | 2.0 | 0.00 | 0.00 | 0.00 | 43 | 1010.8 |
| 20260504172217 | 69 | 329 | 3.0 | 3.0 | 0.00 | 0.00 | 0.00 | 42 | 1010.9 |
| 20260504171714 | 70 | 228 | 3.0 | 3.0 | 0.00 | 0.00 | 0.00 | 39 | 1010.9 |
| 20260504171211 | 69 | 141 | 1.0 | 1.0 | 0.00 | 0.00 | 0.00 | 41 | 1011.0 |
| 20260504170708 | 69 | 256 | 2.0 | 3.0 | 0.00 | 0.00 | 0.00 | 43 | 1011.1 |
| 20260504170206 | 69 | 305 | 4.0 | 6.0 | 0.00 | 0.00 | 0.00 | 43 | 1011.1 |
| 20260504160124 | 66 | 152 | 0.0 | 0.0 | 0.00 | 0.00 | 0.00 | 43 | 1012.1 |
| 20260504151051 | 64 | 113 | 3.0 | 5.0 | 0.00 | 0.00 | 0.00 | 39 | 1012.7 |
| 20260504150549 | 64 | 81 | 2.0 | 2.0 | 0.00 | 0.00 | 0.00 | 39 | 1012.6 |
| 20260504141014 | 59 | 293 | 3.0 | 5.0 | 0.00 | 0.00 | 0.00 | 50 | 1013.0 |
| 20260504140510 | 59 | 338 | 3.0 | 3.0 | 0.00 | 0.00 | 0.00 | 51 | 1013.0 |
| 20260504120213 | 42 | 226 | 0.0 | 0.0 | 0.00 | 0.00 | 0.00 | 96 | 1013.9 |
| 20260504110514 | 33 | 224 | 0.0 | 0.0 | 0.00 | 0.00 | 0.00 | 98 | 1013.7 |
| 20260504100326 | 33 | 224 | 0.0 | 0.0 | 0.00 | 0.00 | 0.00 | 98 | 1013.5 |
| 20260504081720 | 34 | 225 | 0.0 | 0.0 | 0.00 | 0.00 | 0.00 | 96 | 1014.0 |
| 20260504081216 | 34 | 225 | 0.0 | 0.0 | 0.00 | 0.00 | 0.00 | 96 | 1013.8 |
| 20260504080713 | 33 | 225 | 0.0 | 0.0 | 0.00 | 0.00 | 0.00 | 95 | 1013.7 |
| 20260504080209 | 34 | 225 | 0.0 | 0.0 | 0.00 | 0.00 | 0.00 | 95 | 1013.7 |
| 20260504070137 | 35 | 225 | 0.0 | 0.0 | 0.00 | 0.00 | 0.00 | 94 | 1013.6 |
| 20260504050526 | 37 | 225 | 0.0 | 0.0 | 0.00 | 0.00 | 0.00 | 90 | 1013.7 |
| 20260504050023 | 37 | 225 | 0.0 | 0.0 | 0.00 | 0.00 | 0.00 | 90 | 1013.6 |
| 20260504045520 | 37 | 225 | 0.0 | 0.0 | 0.00 | 0.00 | 0.00 | 90 | 1013.5 |
| 20260504045015 | 38 | 225 | 0.0 | 0.0 | 0.00 | 0.00 | 0.00 | 90 | 1013.5 |
| 20260504044513 | 38 | 225 | 0.0 | 0.0 | 0.00 | 0.00 | 0.00 | 89 | 1013.5 |
| 20260504044009 | 38 | 225 | 0.0 | 0.0 | 0.00 | 0.00 | 0.00 | 89 | 1013.6 |
| 20260504043506 | 38 | 225 | 0.0 | 0.0 | 0.00 | 0.00 | 0.00 | 88 | 1013.5 |
| 20260504043004 | 38 | 225 | 0.0 | 0.0 | 0.00 | 0.00 | 0.00 | 87 | 1013.5 |
| 20260504042500 | 38 | 225 | 0.0 | 0.0 | 0.00 | 0.00 | 0.00 | 87 | 1013.7 |
| 20260504041957 | 38 | 225 | 0.0 | 0.0 | 0.00 | 0.00 | 0.00 | 88 | 1013.5 |
| 20260504041454 | 38 | 225 | 0.0 | 0.0 | 0.00 | 0.00 | 0.00 | 89 | 1013.4 |
| 20260504040949 | 38 | 225 | 0.0 | 0.0 | 0.00 | 0.00 | 0.00 | 89 | 1013.4 |
| 20260504040447 | 39 | 225 | 0.0 | 0.0 | 0.00 | 0.00 | 0.00 | 90 | 1013.3 |
| 20260504035943 | 39 | 225 | 0.0 | 0.0 | 0.00 | 0.00 | 0.00 | 89 | 1013.3 |
| 20260504035441 | 39 | 225 | 0.0 | 0.0 | 0.00 | 0.00 | 0.00 | 89 | 1013.1 |
| 20260504034937 | 39 | 225 | 0.0 | 0.0 | 0.00 | 0.00 | 0.00 | 89 | 1013.1 |
| 20260504034435 | 40 | 225 | 0.0 | 0.0 | 0.00 | 0.00 | 0.00 | 89 | 1012.9 |
| 20260504033932 | 40 | 225 | 0.0 | 0.0 | 0.00 | 0.00 | 0.00 | 89 | 1012.8 |
| 20260504033429 | 40 | 225 | 0.0 | 0.0 | 0.00 | 0.00 | 0.00 | 88 | 1013.0 |
| 20260504032926 | 40 | 225 | 0.0 | 0.0 | 0.00 | 0.00 | 0.00 | 87 | 1012.7 |
| 20260504032423 | 40 | 225 | 0.0 | 0.0 | 0.00 | 0.00 | 0.00 | 86 | 1012.6 |
| 20260504031920 | 40 | 225 | 0.0 | 0.0 | 0.00 | 0.00 | 0.00 | 86 | 1012.8 |
| 20260504031417 | 40 | 225 | 0.0 | 0.0 | 0.00 | 0.00 | 0.00 | 85 | 1012.9 |
| 20260504030913 | 41 | 225 | 0.0 | 0.0 | 0.00 | 0.00 | 0.00 | 86 | 1012.8 |
| 20260504030411 | 41 | 225 | 0.0 | 0.0 | 0.00 | 0.00 | 0.00 | 86 | 1012.7 |
| 20260504025906 | 41 | 225 | 0.0 | 0.0 | 0.00 | 0.00 | 0.00 | 86 | 1012.8 |
| 20260504025404 | 41 | 225 | 0.0 | 0.0 | 0.00 | 0.00 | 0.00 | 85 | 1012.7 |